Time,TemperatureF,DewpointF,PressureIn,WindDirection,WindDirectionDegrees,WindSpeedMPH,WindSpeedGustMPH,Humidity,HourlyPrecipIn,Conditions,Clouds,dailyrainin,SoftwareType,DateUTC
2013-08-24 00:01:00,64.4,49.3,29.96,NNE,30,0.0,5.0,58,0.00,,,0.00,meteohub,2013-08-24 04:01:00,
2013-08-24 00:03:00,64.2,49.1,29.96,NNE,30,0.0,5.0,58,0.00,,,0.00,meteohub,2013-08-24 04:03:00,
2013-08-24 00:05:00,64.2,49.1,29.96,North,9,4.0,5.0,58,0.00,,,0.00,meteohub,2013-08-24 04:05:00,
2013-08-24 00:07:00,64.0,48.9,29.96,NNW,343,2.0,5.0,58,0.00,,,0.00,meteohub,2013-08-24 04:07:00,
2013-08-24 00:12:00,63.9,49.3,29.96,NNE,12,0.0,5.0,59,0.00,,,0.00,meteohub,2013-08-24 04:12:00,
2013-08-24 00:17:00,63.7,49.1,29.96,North,9,0.0,5.0,59,0.00,,,0.00,meteohub,2013-08-24 04:17:00,
2013-08-24 00:22:00,63.5,49.3,29.96,North,9,0.0,5.0,60,0.00,,,0.00,meteohub,2013-08-24 04:22:00,
2013-08-24 00:27:00,63.5,48.9,29.96,NE,48,3.0,4.0,59,0.00,,,0.00,meteohub,2013-08-24 04:27:00,
2013-08-24 00:32:00,63.3,48.7,29.96,NNE,17,0.0,4.0,59,0.00,,,0.00,meteohub,2013-08-24 04:32:00,
2013-08-24 00:37:00,63.1,49.1,29.96,NNW,343,3.0,4.0,60,0.00,,,0.00,meteohub,2013-08-24 04:37:00,
2013-08-24 00:42:00,63.0,48.4,29.96,NNW,342,0.0,4.0,59,0.00,,,0.00,meteohub,2013-08-24 04:42:00,
2013-08-24 00:47:00,63.0,48.4,29.99,North,357,5.0,5.0,59,0.00,,,0.00,meteohub,2013-08-24 04:47:00,
2013-08-24 00:52:00,63.0,48.4,29.99,North,357,2.0,5.0,59,0.00,,,0.00,meteohub,2013-08-24 04:52:00,
2013-08-24 00:57:00,63.0,48.4,29.99,NNE,17,2.0,5.0,59,0.00,,,0.00,meteohub,2013-08-24 04:57:00,
2013-08-24 01:02:00,63.0,48.4,29.99,North,7,0.0,5.0,59,0.00,,,0.00,meteohub,2013-08-24 05:02:00,
2013-08-24 01:07:00,62.8,48.2,29.99,North,7,0.0,4.0,59,0.00,,,0.00,meteohub,2013-08-24 05:07:00,
2013-08-24 01:12:00,62.6,48.0,29.99,NNE,18,4.0,4.0,59,0.00,,,0.00,meteohub,2013-08-24 05:12:00,
2013-08-24 01:17:00,62.2,48.2,29.99,NNE,19,0.0,4.0,60,0.00,,,0.00,meteohub,2013-08-24 05:17:00,
2013-08-24 01:22:00,62.1,48.0,29.99,NNE,19,0.0,4.0,60,0.00,,,0.00,meteohub,2013-08-24 05:22:00,
2013-08-24 01:27:00,62.1,48.0,29.99,North,353,0.0,4.0,60,0.00,,,0.00,meteohub,2013-08-24 05:27:00,
2013-08-24 01:32:00,62.1,48.0,29.99,North,6,3.0,4.0,60,0.00,,,0.00,meteohub,2013-08-24 05:32:00,
2013-08-24 01:37:00,62.1,48.0,29.99,North,5,2.0,4.0,60,0.00,,,0.00,meteohub,2013-08-24 05:37:00,
2013-08-24 01:42:00,62.1,48.0,29.99,NE,40,2.0,4.0,60,0.00,,,0.00,meteohub,2013-08-24 05:42:00,
2013-08-24 01:47:00,62.1,48.0,29.99,NNE,21,0.0,4.0,60,0.00,,,0.00,meteohub,2013-08-24 05:47:00,
2013-08-24 01:52:00,61.9,47.8,29.99,North,357,3.0,4.0,60,0.00,,,0.00,meteohub,2013-08-24 05:52:00,
2013-08-24 01:57:00,61.7,47.7,29.99,NE,43,0.0,4.0,60,0.00,,,0.00,meteohub,2013-08-24 05:57:00,
2013-08-24 02:02:00,61.7,47.7,29.99,NE,35,3.0,4.0,60,0.00,,,0.00,meteohub,2013-08-24 06:02:00,
2013-08-24 02:07:00,61.5,47.5,29.99,NE,46,0.0,5.0,60,0.00,,,0.00,meteohub,2013-08-24 06:07:00,
2013-08-24 02:12:00,61.3,47.3,29.99,NE,46,0.0,5.0,60,0.00,,,0.00,meteohub,2013-08-24 06:12:00,
2013-08-24 02:17:00,61.2,47.1,29.99,NE,56,0.0,5.0,60,0.00,,,0.00,meteohub,2013-08-24 06:17:00,
2013-08-24 02:22:00,61.2,47.7,29.99,NNE,25,3.0,5.0,61,0.00,,,0.00,meteohub,2013-08-24 06:22:00,
2013-08-24 02:27:00,61.0,47.5,29.99,NNE,25,0.0,5.0,61,0.00,,,0.00,meteohub,2013-08-24 06:27:00,
2013-08-24 02:32:00,60.8,47.3,30.02,North,0,2.0,5.0,61,0.00,,,0.00,meteohub,2013-08-24 06:32:00,
2013-08-24 02:37:00,60.6,47.5,30.02,North,353,3.0,5.0,62,0.00,,,0.00,meteohub,2013-08-24 06:37:00,
2013-08-24 02:42:00,60.6,48.0,30.02,NNW,328,3.0,5.0,63,0.00,,,0.00,meteohub,2013-08-24 06:42:00,
2013-08-24 02:47:00,60.4,47.8,30.02,North,10,3.0,5.0,63,0.00,,,0.00,meteohub,2013-08-24 06:47:00,
2013-08-24 02:52:00,60.3,48.0,30.02,North,10,2.0,5.0,64,0.00,,,0.00,meteohub,2013-08-24 06:52:00,
2013-08-24 02:57:00,60.1,47.8,30.02,North,10,0.0,5.0,64,0.00,,,0.00,meteohub,2013-08-24 06:57:00,
2013-08-24 03:02:00,59.9,48.0,30.02,NE,50,0.0,4.0,65,0.00,,,0.00,meteohub,2013-08-24 07:02:00,
2013-08-24 03:07:00,59.7,48.0,30.02,NE,50,0.0,4.0,65,0.00,,,0.00,meteohub,2013-08-24 07:07:00,
2013-08-24 03:12:00,59.5,48.2,30.02,NNE,33,0.0,4.0,66,0.00,,,0.00,meteohub,2013-08-24 07:12:00,
2013-08-24 03:17:00,59.4,48.4,30.02,North,0,0.0,4.0,67,0.00,,,0.00,meteohub,2013-08-24 07:17:00,
2013-08-24 03:22:00,59.4,48.4,30.02,North,0,2.0,4.0,67,0.00,,,0.00,meteohub,2013-08-24 07:22:00,
2013-08-24 03:27:00,59.4,48.7,30.02,North,0,4.0,4.0,68,0.00,,,0.00,meteohub,2013-08-24 07:27:00,
2013-08-24 03:32:00,59.2,48.6,30.02,NNE,20,5.0,5.0,68,0.00,,,0.00,meteohub,2013-08-24 07:32:00,
2013-08-24 03:37:00,59.4,48.7,30.02,North,0,2.0,6.0,68,0.00,,,0.00,meteohub,2013-08-24 07:37:00,
2013-08-24 03:42:00,59.4,48.7,30.02,North,9,4.0,6.0,68,0.00,,,0.00,meteohub,2013-08-24 07:42:00,
2013-08-24 03:47:00,59.4,48.7,30.02,North,357,2.0,6.0,68,0.00,,,0.00,meteohub,2013-08-24 07:47:00,
2013-08-24 03:52:00,59.2,48.6,30.02,NNE,20,3.0,6.0,68,0.00,,,0.00,meteohub,2013-08-24 07:52:00,
2013-08-24 03:57:00,59.2,48.6,30.02,NW,323,0.0,4.0,68,0.00,,,0.00,meteohub,2013-08-24 07:57:00,
2013-08-24 04:02:00,59.2,48.6,30.02,North,1,3.0,4.0,68,0.00,,,0.00,meteohub,2013-08-24 08:02:00,
2013-08-24 04:07:00,59.0,48.4,30.02,NNE,18,3.0,4.0,68,0.00,,,0.00,meteohub,2013-08-24 08:07:00,
2013-08-24 04:12:00,58.8,48.7,30.02,North,0,0.0,4.0,69,0.00,,,0.00,meteohub,2013-08-24 08:12:00,
2013-08-24 04:17:00,58.8,48.7,30.05,NNE,15,4.0,4.0,69,0.00,,,0.00,meteohub,2013-08-24 08:17:00,
2013-08-24 04:22:00,58.6,48.6,30.05,NNE,15,3.0,5.0,69,0.00,,,0.00,meteohub,2013-08-24 08:22:00,
2013-08-24 04:27:00,58.5,48.4,30.05,North,357,0.0,5.0,69,0.00,,,0.00,meteohub,2013-08-24 08:27:00,
2013-08-24 04:32:00,58.5,48.7,30.05,North,2,0.0,4.0,70,0.00,,,0.00,meteohub,2013-08-24 08:32:00,
2013-08-24 04:37:00,58.5,48.7,30.05,NNW,344,2.0,4.0,70,0.00,,,0.00,meteohub,2013-08-24 08:37:00,
2013-08-24 04:42:00,58.3,48.6,30.05,NNE,19,4.0,5.0,70,0.00,,,0.00,meteohub,2013-08-24 08:42:00,
2013-08-24 04:47:00,58.1,48.7,30.05,NE,41,0.0,5.0,71,0.00,,,0.00,meteohub,2013-08-24 08:47:00,
2013-08-24 04:52:00,57.9,48.6,30.05,ENE,67,3.0,4.0,71,0.00,,,0.00,meteohub,2013-08-24 08:52:00,
2013-08-24 04:57:00,57.7,48.4,30.05,NNE,19,2.0,4.0,71,0.00,,,0.00,meteohub,2013-08-24 08:57:00,
2013-08-24 05:02:00,57.7,48.4,30.05,NNE,13,0.0,4.0,71,0.00,,,0.00,meteohub,2013-08-24 09:02:00,
2013-08-24 05:07:00,57.7,48.7,30.05,NE,47,0.0,4.0,72,0.00,,,0.00,meteohub,2013-08-24 09:07:00,
2013-08-24 05:12:00,57.7,48.7,30.05,NNE,32,0.0,4.0,72,0.00,,,0.00,meteohub,2013-08-24 09:12:00,
2013-08-24 05:17:00,57.6,48.6,30.05,NNE,32,2.0,4.0,72,0.00,,,0.00,meteohub,2013-08-24 09:17:00,
2013-08-24 05:22:00,57.6,48.6,30.05,NE,53,0.0,4.0,72,0.00,,,0.00,meteohub,2013-08-24 09:22:00,
2013-08-24 05:27:00,57.6,48.6,30.05,NE,50,0.0,4.0,72,0.00,,,0.00,meteohub,2013-08-24 09:27:00,
2013-08-24 05:32:00,57.4,48.4,30.05,NE,50,0.0,5.0,72,0.00,,,0.00,meteohub,2013-08-24 09:32:00,
2013-08-24 05:37:00,57.4,48.4,30.05,NE,50,3.0,5.0,72,0.00,,,0.00,meteohub,2013-08-24 09:37:00,
2013-08-24 05:42:00,57.4,48.4,30.05,North,353,4.0,5.0,72,0.00,,,0.00,meteohub,2013-08-24 09:42:00,
2013-08-24 05:47:00,57.4,48.4,30.05,NNE,24,4.0,6.0,72,0.00,,,0.00,meteohub,2013-08-24 09:47:00,
2013-08-24 05:52:00,57.6,48.6,30.05,North,353,3.0,6.0,72,0.00,,,0.00,meteohub,2013-08-24 09:52:00,
2013-08-24 05:57:00,57.7,48.7,30.05,North,357,3.0,6.0,72,0.00,,,0.00,meteohub,2013-08-24 09:57:00,
2013-08-24 06:02:00,57.9,48.6,30.08,NNE,17,5.0,6.0,71,0.00,,,0.00,meteohub,2013-08-24 10:02:00,
2013-08-24 06:07:00,58.1,48.4,30.08,NNE,26,5.0,8.0,70,0.00,,,0.00,meteohub,2013-08-24 10:07:00,
2013-08-24 06:12:00,58.3,48.2,30.08,NNE,12,6.0,9.0,69,0.00,,,0.00,meteohub,2013-08-24 10:12:00,
2013-08-24 06:17:00,58.5,47.5,30.08,North,11,3.0,9.0,67,0.00,,,0.00,meteohub,2013-08-24 10:17:00,
2013-08-24 06:22:00,58.6,47.3,30.08,North,0,5.0,8.0,66,0.00,,,0.00,meteohub,2013-08-24 10:22:00,
2013-08-24 06:27:00,58.6,47.3,30.08,North,3,8.0,8.0,66,0.00,,,0.00,meteohub,2013-08-24 10:27:00,
2013-08-24 06:32:00,58.6,47.3,30.08,NE,35,4.0,8.0,66,0.00,,,0.00,meteohub,2013-08-24 10:32:00,
2013-08-24 06:37:00,58.6,46.9,30.08,NNE,22,3.0,8.0,65,0.00,,,0.00,meteohub,2013-08-24 10:37:00,
2013-08-24 06:42:00,58.5,46.8,30.08,North,9,5.0,8.0,65,0.00,,,0.00,meteohub,2013-08-24 10:42:00,
2013-08-24 06:47:00,58.6,46.9,30.08,NNW,338,4.0,6.0,65,0.00,,,0.00,meteohub,2013-08-24 10:47:00,
2013-08-24 06:52:00,58.6,46.9,30.08,North,7,3.0,6.0,65,0.00,,,0.00,meteohub,2013-08-24 10:52:00,
2013-08-24 06:57:00,58.8,47.1,30.08,NNE,12,4.0,8.0,65,0.00,,,0.00,meteohub,2013-08-24 10:57:00,
2013-08-24 07:02:00,58.8,47.1,30.08,North,353,4.0,8.0,65,0.00,,,0.00,meteohub,2013-08-24 11:02:00,
2013-08-24 07:07:00,59.2,46.9,30.08,NW,317,6.0,8.0,64,0.00,,,0.00,meteohub,2013-08-24 11:07:00,
2013-08-24 07:12:00,59.5,47.3,30.08,NNW,329,3.0,6.0,64,0.00,,,0.00,meteohub,2013-08-24 11:12:00,
2013-08-24 07:17:00,59.7,47.1,30.08,North,0,7.0,8.0,63,0.00,,,0.00,meteohub,2013-08-24 11:17:00,
2013-08-24 07:22:00,60.1,46.9,30.08,NNE,16,0.0,8.0,62,0.00,,,0.00,meteohub,2013-08-24 11:22:00,
2013-08-24 07:27:00,60.6,47.1,30.08,NNE,22,3.0,8.0,61,0.00,,,0.00,meteohub,2013-08-24 11:27:00,
2013-08-24 07:32:00,60.8,47.3,30.11,North,353,4.0,7.0,61,0.00,,,0.00,meteohub,2013-08-24 11:32:00,
2013-08-24 07:37:00,61.0,46.9,30.11,North,10,4.0,6.0,60,0.00,,,0.00,meteohub,2013-08-24 11:37:00,
2013-08-24 07:42:00,61.0,46.9,30.11,NE,34,0.0,6.0,60,0.00,,,0.00,meteohub,2013-08-24 11:42:00,
2013-08-24 07:47:00,61.5,47.1,30.11,North,7,0.0,6.0,59,0.00,,,0.00,meteohub,2013-08-24 11:47:00,
2013-08-24 07:52:00,62.6,47.7,30.11,North,3,4.0,6.0,58,0.00,,,0.00,meteohub,2013-08-24 11:52:00,
2013-08-24 07:57:00,63.3,47.3,30.11,North,0,3.0,6.0,56,0.00,,,0.00,meteohub,2013-08-24 11:57:00,
2013-08-24 08:02:00,64.6,46.6,30.11,NE,50,4.0,5.0,52,0.00,,,0.00,meteohub,2013-08-24 12:02:00,
2013-08-24 08:07:00,65.5,45.9,30.11,North,8,4.0,7.0,49,0.00,,,0.00,meteohub,2013-08-24 12:07:00,
2013-08-24 08:12:00,65.8,45.0,30.11,NE,36,0.0,8.0,47,0.00,,,0.00,meteohub,2013-08-24 12:12:00,
2013-08-24 08:17:00,66.0,44.6,30.11,NNW,330,3.0,8.0,46,0.00,,,0.00,meteohub,2013-08-24 12:17:00,
2013-08-24 08:22:00,66.0,44.6,30.11,NNW,333,3.0,8.0,46,0.00,,,0.00,meteohub,2013-08-24 12:22:00,
2013-08-24 08:27:00,66.4,44.4,30.11,ENE,63,6.0,8.0,45,0.00,,,0.00,meteohub,2013-08-24 12:27:00,
2013-08-24 08:32:00,66.7,44.1,30.11,NNW,342,0.0,8.0,44,0.00,,,0.00,meteohub,2013-08-24 12:32:00,
2013-08-24 08:37:00,66.7,43.5,30.11,NNW,338,4.0,9.0,43,0.00,,,0.00,meteohub,2013-08-24 12:37:00,
2013-08-24 08:42:00,66.9,44.2,30.11,North,353,3.0,9.0,44,0.00,,,0.00,meteohub,2013-08-24 12:42:00,
2013-08-24 08:47:00,67.5,44.8,30.14,North,11,4.0,9.0,44,0.00,,,0.00,meteohub,2013-08-24 12:47:00,
2013-08-24 08:52:00,67.3,44.1,30.14,NNW,331,4.0,9.0,43,0.00,,,0.00,meteohub,2013-08-24 12:52:00,
2013-08-24 08:57:00,67.3,44.6,30.14,North,357,4.0,8.0,44,0.00,,,0.00,meteohub,2013-08-24 12:57:00,
2013-08-24 09:02:00,68.4,45.7,30.11,East,86,5.0,8.0,44,0.00,,,0.00,meteohub,2013-08-24 13:02:00,
2013-08-24 09:07:00,68.9,45.5,30.11,North,353,4.0,7.0,43,0.00,,,0.00,meteohub,2013-08-24 13:07:00,
2013-08-24 09:12:00,69.3,44.6,30.11,North,7,6.0,8.0,41,0.00,,,0.00,meteohub,2013-08-24 13:12:00,
2013-08-24 09:17:00,68.9,44.2,30.14,NNW,344,3.0,9.0,41,0.00,,,0.00,meteohub,2013-08-24 13:17:00,
2013-08-24 09:22:00,69.3,44.6,30.14,East,84,0.0,9.0,41,0.00,,,0.00,meteohub,2013-08-24 13:22:00,
2013-08-24 09:27:00,69.8,44.4,30.14,SSE,166,3.0,10.0,40,0.00,,,0.00,meteohub,2013-08-24 13:27:00,
2013-08-24 09:32:00,70.3,45.0,30.14,East,100,6.0,10.0,40,0.00,,,0.00,meteohub,2013-08-24 13:32:00,
2013-08-24 09:37:00,70.2,43.3,30.14,NNE,29,5.0,10.0,38,0.00,,,0.00,meteohub,2013-08-24 13:37:00,
2013-08-24 09:42:00,69.6,43.5,30.14,North,0,2.0,9.0,39,0.00,,,0.00,meteohub,2013-08-24 13:42:00,
2013-08-24 09:47:00,69.8,43.7,30.14,ESE,102,3.0,9.0,39,0.00,,,0.00,meteohub,2013-08-24 13:47:00,
2013-08-24 09:52:00,70.0,43.9,30.14,North,3,3.0,10.0,39,0.00,,,0.00,meteohub,2013-08-24 13:52:00,
2013-08-24 09:57:00,70.5,44.4,30.14,ESE,123,3.0,10.0,39,0.00,,,0.00,meteohub,2013-08-24 13:57:00,
2013-08-24 10:02:00,70.7,44.6,30.14,NE,49,3.0,10.0,39,0.00,,,0.00,meteohub,2013-08-24 14:02:00,
2013-08-24 10:07:00,71.2,45.0,30.14,ENE,75,6.0,10.0,39,0.00,,,0.00,meteohub,2013-08-24 14:07:00,
2013-08-24 10:12:00,71.4,43.7,30.14,North,0,3.0,7.0,37,0.00,,,0.00,meteohub,2013-08-24 14:12:00,
2013-08-24 10:17:00,71.4,44.4,30.14,NW,326,3.0,8.0,38,0.00,,,0.00,meteohub,2013-08-24 14:17:00,
2013-08-24 10:22:00,71.1,44.8,30.14,North,0,5.0,8.0,39,0.00,,,0.00,meteohub,2013-08-24 14:22:00,
2013-08-24 10:27:00,71.1,44.2,30.14,NW,308,3.0,8.0,38,0.00,,,0.00,meteohub,2013-08-24 14:27:00,
2013-08-24 10:32:00,71.4,44.4,30.14,NW,321,8.0,10.0,38,0.00,,,0.00,meteohub,2013-08-24 14:32:00,
2013-08-24 10:37:00,71.4,43.2,30.14,NNE,23,6.0,10.0,36,0.00,,,0.00,meteohub,2013-08-24 14:37:00,
2013-08-24 10:42:00,71.6,43.2,30.14,NNW,328,4.0,9.0,36,0.00,,,0.00,meteohub,2013-08-24 14:42:00,
2013-08-24 10:47:00,71.8,42.6,30.14,NNE,31,4.0,9.0,35,0.00,,,0.00,meteohub,2013-08-24 14:47:00,
2013-08-24 10:53:00,72.5,43.3,30.14,ENE,74,3.0,8.0,35,0.00,,,0.00,meteohub,2013-08-24 14:53:00,
2013-08-24 10:58:00,72.9,42.8,30.14,ENE,65,8.0,8.0,34,0.00,,,0.00,meteohub,2013-08-24 14:58:00,
2013-08-24 11:03:00,72.7,44.2,30.14,NE,34,4.0,8.0,36,0.00,,,0.00,meteohub,2013-08-24 15:03:00,
2013-08-24 11:08:00,73.2,43.2,30.14,NE,53,5.0,8.0,34,0.00,,,0.00,meteohub,2013-08-24 15:08:00,
2013-08-24 11:13:00,73.4,44.8,30.14,NE,37,0.0,8.0,36,0.00,,,0.00,meteohub,2013-08-24 15:13:00,
2013-08-24 11:18:00,73.6,45.0,30.14,ESE,121,6.0,9.0,36,0.00,,,0.00,meteohub,2013-08-24 15:18:00,
2013-08-24 11:23:00,74.3,44.1,30.14,ENE,61,3.0,9.0,34,0.00,,,0.00,meteohub,2013-08-24 15:23:00,
2013-08-24 11:28:00,74.7,45.9,30.14,NE,54,3.0,6.0,36,0.00,,,0.00,meteohub,2013-08-24 15:28:00,
2013-08-24 11:33:00,74.8,43.9,30.14,NW,306,4.0,11.0,33,0.00,,,0.00,meteohub,2013-08-24 15:33:00,
2013-08-24 11:38:00,74.7,45.1,30.14,SE,126,0.0,11.0,35,0.00,,,0.00,meteohub,2013-08-24 15:38:00,
2013-08-24 11:43:00,74.7,43.7,30.14,North,353,5.0,9.0,33,0.00,,,0.00,meteohub,2013-08-24 15:43:00,
2013-08-24 11:48:00,74.3,43.3,30.14,East,81,3.0,8.0,33,0.00,,,0.00,meteohub,2013-08-24 15:48:00,
2013-08-24 11:53:00,75.0,44.8,30.14,SE,141,6.0,8.0,34,0.00,,,0.00,meteohub,2013-08-24 15:53:00,
2013-08-24 11:59:00,74.3,43.3,30.14,SE,138,5.0,6.0,33,0.00,,,0.00,meteohub,2013-08-24 15:59:00,
2013-08-24 12:04:00,74.3,44.1,30.14,NNE,19,3.0,10.0,34,0.00,,,0.00,meteohub,2013-08-24 16:04:00,
2013-08-24 12:09:00,74.5,45.0,30.14,SSE,154,0.0,10.0,35,0.00,,,0.00,meteohub,2013-08-24 16:09:00,
2013-08-24 12:14:00,74.1,43.9,30.14,North,6,4.0,9.0,34,0.00,,,0.00,meteohub,2013-08-24 16:14:00,
2013-08-24 12:19:00,73.9,44.6,30.14,East,84,6.0,10.0,35,0.00,,,0.00,meteohub,2013-08-24 16:19:00,
2013-08-24 12:24:00,74.7,44.4,30.14,East,79,4.0,10.0,34,0.00,,,0.00,meteohub,2013-08-24 16:24:00,
2013-08-24 12:29:00,74.8,44.6,30.14,SSW,209,0.0,8.0,34,0.00,,,0.00,meteohub,2013-08-24 16:29:00,
2013-08-24 12:34:00,75.0,44.8,30.14,East,84,0.0,8.0,34,0.00,,,0.00,meteohub,2013-08-24 16:34:00,
2013-08-24 12:39:00,75.4,45.1,30.14,SE,141,6.0,8.0,34,0.00,,,0.00,meteohub,2013-08-24 16:39:00,
2013-08-24 12:44:00,75.2,45.0,30.14,WNW,291,0.0,8.0,34,0.00,,,0.00,meteohub,2013-08-24 16:44:00,
2013-08-24 12:49:00,75.2,45.0,30.14,NNE,12,3.0,10.0,34,0.00,,,0.00,meteohub,2013-08-24 16:49:00,
2013-08-24 12:54:00,75.4,44.2,30.14,ESE,109,0.0,10.0,33,0.00,,,0.00,meteohub,2013-08-24 16:54:00,
2013-08-24 12:59:00,75.4,45.1,30.14,North,353,4.0,10.0,34,0.00,,,0.00,meteohub,2013-08-24 16:59:00,
2013-08-24 13:05:00,75.2,45.0,30.14,NE,46,5.0,8.0,34,0.00,,,0.00,meteohub,2013-08-24 17:05:00,
2013-08-24 13:10:00,75.2,45.0,30.14,NNW,331,5.0,8.0,34,0.00,,,0.00,meteohub,2013-08-24 17:10:00,
2013-08-24 13:15:00,75.2,45.0,30.14,NNW,342,4.0,8.0,34,0.00,,,0.00,meteohub,2013-08-24 17:15:00,
2013-08-24 13:20:00,75.4,45.1,30.14,ESE,105,3.0,8.0,34,0.00,,,0.00,meteohub,2013-08-24 17:20:00,
2013-08-24 13:25:00,75.7,43.7,30.14,North,8,3.0,8.0,32,0.00,,,0.00,meteohub,2013-08-24 17:25:00,
2013-08-24 13:30:00,75.9,44.8,30.14,NNE,19,3.0,8.0,33,0.00,,,0.00,meteohub,2013-08-24 17:30:00,
2013-08-24 13:35:00,75.6,42.8,30.14,North,0,6.0,8.0,31,0.00,,,0.00,meteohub,2013-08-24 17:35:00,
2013-08-24 13:40:00,75.7,43.7,30.14,NW,308,3.0,8.0,32,0.00,,,0.00,meteohub,2013-08-24 17:40:00,
2013-08-24 13:45:00,75.9,44.8,30.14,North,353,5.0,8.0,33,0.00,,,0.00,meteohub,2013-08-24 17:45:00,
2013-08-24 13:50:00,76.1,43.3,30.14,NNE,17,3.0,6.0,31,0.00,,,0.00,meteohub,2013-08-24 17:50:00,
2013-08-24 13:55:00,76.1,44.1,30.14,NNW,333,7.0,7.0,32,0.00,,,0.00,meteohub,2013-08-24 17:55:00,
2013-08-24 14:00:00,76.1,43.3,30.14,ENE,63,3.0,7.0,31,0.00,,,0.00,meteohub,2013-08-24 18:00:00,
2013-08-24 14:05:00,76.6,44.6,30.14,NNW,332,0.0,8.0,32,0.00,,,0.00,meteohub,2013-08-24 18:05:00,
2013-08-24 14:10:00,77.7,46.4,30.14,North,0,0.0,8.0,33,0.00,,,0.00,meteohub,2013-08-24 18:10:00,
2013-08-24 14:16:00,77.9,45.7,30.14,NNW,329,6.0,8.0,32,0.00,,,0.00,meteohub,2013-08-24 18:16:00,
2013-08-24 14:21:00,77.9,44.8,30.14,ESE,104,4.0,6.0,31,0.00,,,0.00,meteohub,2013-08-24 18:21:00,
2013-08-24 14:26:00,77.4,44.4,30.14,East,94,0.0,6.0,31,0.00,,,0.00,meteohub,2013-08-24 18:26:00,
2013-08-24 14:31:00,77.7,43.0,30.14,ENE,71,6.0,6.0,29,0.00,,,0.00,meteohub,2013-08-24 18:31:00,
2013-08-24 14:36:00,77.7,41.0,30.14,ENE,75,6.0,9.0,27,0.00,,,0.00,meteohub,2013-08-24 18:36:00,
2013-08-24 14:41:00,77.5,43.7,30.14,NE,43,2.0,9.0,30,0.00,,,0.00,meteohub,2013-08-24 18:41:00,
2013-08-24 14:46:00,77.2,43.3,30.14,North,0,3.0,8.0,30,0.00,,,0.00,meteohub,2013-08-24 18:46:00,
2013-08-24 14:51:00,76.8,42.1,30.14,ESE,115,5.0,8.0,29,0.00,,,0.00,meteohub,2013-08-24 18:51:00,
2013-08-24 14:56:00,77.5,43.7,30.14,NE,55,0.0,9.0,30,0.00,,,0.00,meteohub,2013-08-24 18:56:00,
2013-08-24 15:01:00,77.9,43.2,30.14,ESE,104,6.0,9.0,29,0.00,,,0.00,meteohub,2013-08-24 19:01:00,
2013-08-24 15:06:00,78.3,44.2,30.14,SSW,208,6.0,9.0,30,0.00,,,0.00,meteohub,2013-08-24 19:06:00,
2013-08-24 15:11:00,78.3,45.1,30.14,SE,126,4.0,8.0,31,0.00,,,0.00,meteohub,2013-08-24 19:11:00,
2013-08-24 15:16:00,78.3,42.4,30.14,NW,317,6.0,8.0,28,0.00,,,0.00,meteohub,2013-08-24 19:16:00,
2013-08-24 15:22:00,77.2,44.2,30.14,North,353,5.0,7.0,31,0.00,,,0.00,meteohub,2013-08-24 19:22:00,
2013-08-24 15:27:00,75.7,43.0,30.14,NNW,336,2.0,7.0,31,0.00,,,0.00,meteohub,2013-08-24 19:27:00,
2013-08-24 15:32:00,75.0,43.2,30.14,NNW,335,2.0,6.0,32,0.00,,,0.00,meteohub,2013-08-24 19:32:00,
2013-08-24 15:37:00,74.7,42.8,30.14,NNW,330,3.0,6.0,32,0.00,,,0.00,meteohub,2013-08-24 19:37:00,
2013-08-24 15:42:00,74.3,42.6,30.14,SE,136,6.0,6.0,32,0.00,,,0.00,meteohub,2013-08-24 19:42:00,
2013-08-24 15:47:00,74.3,41.7,30.14,ENE,60,4.0,8.0,31,0.00,,,0.00,meteohub,2013-08-24 19:47:00,
2013-08-24 15:52:00,74.5,42.6,30.14,ESE,114,4.0,8.0,32,0.00,,,0.00,meteohub,2013-08-24 19:52:00,
2013-08-24 15:57:00,74.5,42.6,30.14,SSE,157,4.0,8.0,32,0.00,,,0.00,meteohub,2013-08-24 19:57:00,
2013-08-24 16:02:00,74.3,42.6,30.14,SSE,158,0.0,8.0,32,0.00,,,0.00,meteohub,2013-08-24 20:02:00,
2013-08-24 16:07:00,74.1,42.4,30.14,North,2,0.0,8.0,32,0.00,,,0.00,meteohub,2013-08-24 20:07:00,
2013-08-24 16:12:00,73.6,41.9,30.14,SW,224,0.0,8.0,32,0.00,,,0.00,meteohub,2013-08-24 20:12:00,
2013-08-24 16:17:00,73.4,41.7,30.14,NNW,340,3.0,6.0,32,0.00,,,0.00,meteohub,2013-08-24 20:17:00,
2013-08-24 16:22:00,73.4,41.7,30.14,North,3,3.0,6.0,32,0.00,,,0.00,meteohub,2013-08-24 20:22:00,
2013-08-24 16:27:00,73.4,41.7,30.14,NNE,30,3.0,6.0,32,0.00,,,0.00,meteohub,2013-08-24 20:27:00,
2013-08-24 16:33:00,73.4,41.7,30.14,NW,321,5.0,6.0,32,0.00,,,0.00,meteohub,2013-08-24 20:33:00,
2013-08-24 16:38:00,73.4,41.7,30.14,NNW,341,0.0,8.0,32,0.00,,,0.00,meteohub,2013-08-24 20:38:00,
2013-08-24 16:43:00,73.4,41.7,30.14,NNE,23,2.0,8.0,32,0.00,,,0.00,meteohub,2013-08-24 20:43:00,
2013-08-24 16:48:00,73.4,41.7,30.14,North,0,2.0,8.0,32,0.00,,,0.00,meteohub,2013-08-24 20:48:00,
2013-08-24 16:53:00,73.6,41.9,30.14,NE,49,3.0,8.0,32,0.00,,,0.00,meteohub,2013-08-24 20:53:00,
2013-08-24 16:58:00,73.6,41.9,30.14,ENE,73,0.0,8.0,32,0.00,,,0.00,meteohub,2013-08-24 20:58:00,
2013-08-24 17:03:00,73.2,41.5,30.14,South,170,0.0,8.0,32,0.00,,,0.00,meteohub,2013-08-24 21:03:00,
2013-08-24 17:08:00,73.0,41.4,30.14,SW,230,0.0,6.0,32,0.00,,,0.00,meteohub,2013-08-24 21:08:00,
2013-08-24 17:13:00,73.2,41.5,30.14,NW,317,4.0,6.0,32,0.00,,,0.00,meteohub,2013-08-24 21:13:00,
2013-08-24 17:18:00,73.0,41.4,30.14,NNW,331,5.0,6.0,32,0.00,,,0.00,meteohub,2013-08-24 21:18:00,
2013-08-24 17:23:00,72.9,41.4,30.14,NW,320,0.0,6.0,32,0.00,,,0.00,meteohub,2013-08-24 21:23:00,
2013-08-24 17:28:00,72.7,41.9,30.14,NNE,33,2.0,6.0,33,0.00,,,0.00,meteohub,2013-08-24 21:28:00,
2013-08-24 17:33:00,72.7,41.9,30.14,NNW,337,0.0,5.0,33,0.00,,,0.00,meteohub,2013-08-24 21:33:00,
2013-08-24 17:39:00,72.7,41.9,30.14,NE,36,3.0,5.0,33,0.00,,,0.00,meteohub,2013-08-24 21:39:00,
2013-08-24 17:44:00,72.5,41.7,30.14,NNW,348,0.0,5.0,33,0.00,,,0.00,meteohub,2013-08-24 21:44:00,
2013-08-24 17:49:00,72.0,42.1,30.14,NNW,348,0.0,5.0,34,0.00,,,0.00,meteohub,2013-08-24 21:49:00,
2013-08-24 17:54:00,71.8,41.9,30.14,NNW,348,0.0,5.0,34,0.00,,,0.00,meteohub,2013-08-24 21:54:00,
2013-08-24 17:59:00,71.6,41.7,30.14,North,6,0.0,4.0,34,0.00,,,0.00,meteohub,2013-08-24 21:59:00,
2013-08-24 18:04:00,71.4,43.2,30.14,North,6,0.0,4.0,36,0.00,,,0.00,meteohub,2013-08-24 22:04:00,
2013-08-24 18:09:00,71.1,43.5,30.14,North,6,0.0,4.0,37,0.00,,,0.00,meteohub,2013-08-24 22:09:00,
2013-08-24 18:14:00,70.5,44.4,30.14,North,6,0.0,3.0,39,0.00,,,0.00,meteohub,2013-08-24 22:14:00,
2013-08-24 18:19:00,70.3,44.2,30.14,North,6,0.0,3.0,39,0.00,,,0.00,meteohub,2013-08-24 22:19:00,
2013-08-24 18:24:00,70.2,44.1,30.14,North,6,0.0,3.0,39,0.00,,,0.00,meteohub,2013-08-24 22:24:00,
2013-08-24 18:29:00,69.8,45.7,30.14,North,6,0.0,3.0,42,0.00,,,0.00,meteohub,2013-08-24 22:29:00,
2013-08-24 18:34:00,69.6,46.8,30.14,North,6,0.0,3.0,44,0.00,,,0.00,meteohub,2013-08-24 22:34:00,
2013-08-24 18:39:00,69.6,46.8,30.14,North,6,0.0,0.0,44,0.00,,,0.00,meteohub,2013-08-24 22:39:00,
2013-08-24 18:44:00,69.4,47.1,30.14,North,6,0.0,0.0,45,0.00,,,0.00,meteohub,2013-08-24 22:44:00,
2013-08-24 18:50:00,69.1,46.8,30.14,North,6,0.0,0.0,45,0.00,,,0.00,meteohub,2013-08-24 22:50:00,
2013-08-24 18:55:00,68.9,46.8,30.14,North,6,0.0,0.0,45,0.00,,,0.00,meteohub,2013-08-24 22:55:00,
2013-08-24 19:00:00,68.7,46.6,30.14,North,6,0.0,0.0,45,0.00,,,0.00,meteohub,2013-08-24 23:00:00,
2013-08-24 19:05:00,68.5,46.9,30.14,North,6,0.0,0.0,46,0.00,,,0.00,meteohub,2013-08-24 23:05:00,
2013-08-24 19:10:00,68.2,47.1,30.14,North,6,0.0,0.0,47,0.00,,,0.00,meteohub,2013-08-24 23:10:00,
2013-08-24 19:15:00,67.8,47.5,30.14,North,6,0.0,0.0,48,0.00,,,0.00,meteohub,2013-08-24 23:15:00,
2013-08-24 19:20:00,67.5,47.7,30.14,North,6,0.0,0.0,49,0.00,,,0.00,meteohub,2013-08-24 23:20:00,
2013-08-24 19:25:00,67.1,47.3,30.14,North,6,0.0,0.0,49,0.00,,,0.00,meteohub,2013-08-24 23:25:00,
2013-08-24 19:30:00,66.7,49.1,30.14,North,6,0.0,3.0,53,0.00,,,0.00,meteohub,2013-08-24 23:30:00,
2013-08-24 19:35:00,66.4,50.7,30.14,North,6,0.0,3.0,57,0.00,,,0.00,meteohub,2013-08-24 23:35:00,
2013-08-24 19:40:00,65.8,51.1,30.14,North,6,0.0,3.0,59,0.00,,,0.00,meteohub,2013-08-24 23:40:00,
2013-08-24 19:45:00,65.7,52.3,30.14,North,6,0.0,0.0,62,0.00,,,0.00,meteohub,2013-08-24 23:45:00,
2013-08-24 19:50:00,65.5,52.5,30.14,North,6,0.0,0.0,63,0.00,,,0.00,meteohub,2013-08-24 23:50:00,
2013-08-24 19:56:00,65.3,52.9,30.14,North,6,0.0,0.0,64,0.00,,,0.00,meteohub,2013-08-24 23:56:00,
2013-08-24 20:01:00,65.1,51.8,30.14,North,6,0.0,0.0,62,0.00,,,0.00,meteohub,2013-08-25 00:01:00,
2013-08-24 20:06:00,64.8,51.4,30.14,North,6,0.0,0.0,62,0.00,,,0.00,meteohub,2013-08-25 00:06:00,
2013-08-24 20:11:00,64.2,50.9,30.14,North,6,0.0,0.0,62,0.00,,,0.00,meteohub,2013-08-25 00:11:00,
2013-08-24 20:16:00,63.5,50.7,30.17,North,6,0.0,0.0,63,0.00,,,0.00,meteohub,2013-08-25 00:16:00,
2013-08-24 20:21:00,63.0,50.5,30.17,North,6,0.0,0.0,64,0.00,,,0.00,meteohub,2013-08-25 00:21:00,
2013-08-24 20:26:00,62.8,50.4,30.17,North,6,0.0,0.0,64,0.00,,,0.00,meteohub,2013-08-25 00:26:00,
2013-08-24 20:31:00,62.6,50.7,30.17,North,6,0.0,0.0,65,0.00,,,0.00,meteohub,2013-08-25 00:31:00,
2013-08-24 20:36:00,62.6,50.7,30.17,North,6,0.0,0.0,65,0.00,,,0.00,meteohub,2013-08-25 00:36:00,
2013-08-24 20:41:00,62.6,51.4,30.17,North,6,0.0,0.0,67,0.00,,,0.00,meteohub,2013-08-25 00:41:00,
2013-08-24 20:46:00,62.2,51.1,30.17,North,6,0.0,0.0,67,0.00,,,0.00,meteohub,2013-08-25 00:46:00,
2013-08-24 20:51:00,61.7,51.1,30.17,North,6,0.0,0.0,68,0.00,,,0.00,meteohub,2013-08-25 00:51:00,
2013-08-24 20:56:00,61.3,51.1,30.17,North,6,0.0,0.0,69,0.00,,,0.00,meteohub,2013-08-25 00:56:00,
2013-08-24 21:02:00,61.0,50.7,30.17,North,6,0.0,0.0,69,0.00,,,0.00,meteohub,2013-08-25 01:02:00,
2013-08-24 21:07:00,60.8,50.9,30.17,North,6,0.0,0.0,70,0.00,,,0.00,meteohub,2013-08-25 01:07:00,
2013-08-24 21:12:00,60.6,51.1,30.17,North,6,0.0,0.0,71,0.00,,,0.00,meteohub,2013-08-25 01:12:00,
2013-08-24 21:17:00,60.6,52.0,30.17,North,6,0.0,0.0,73,0.00,,,0.00,meteohub,2013-08-25 01:17:00,
2013-08-24 21:22:00,60.6,52.3,30.17,North,6,0.0,0.0,74,0.00,,,0.00,meteohub,2013-08-25 01:22:00,
2013-08-24 21:27:00,60.4,52.9,30.17,North,6,2.0,4.0,76,0.00,,,0.00,meteohub,2013-08-25 01:27:00,
2013-08-24 21:32:00,60.1,52.9,30.17,North,6,0.0,4.0,77,0.00,,,0.00,meteohub,2013-08-25 01:32:00,
2013-08-24 21:37:00,59.7,52.5,30.17,North,6,0.0,4.0,77,0.00,,,0.00,meteohub,2013-08-25 01:37:00,
2013-08-24 21:42:00,59.4,52.2,30.17,North,6,0.0,3.0,77,0.00,,,0.00,meteohub,2013-08-25 01:42:00,
2013-08-24 21:47:00,59.2,52.3,30.19,North,6,0.0,0.0,78,0.00,,,0.00,meteohub,2013-08-25 01:47:00,
2013-08-24 21:52:00,59.0,52.5,30.19,North,6,0.0,0.0,79,0.00,,,0.00,meteohub,2013-08-25 01:52:00,
2013-08-24 21:57:00,58.8,52.7,30.19,North,6,0.0,0.0,80,0.00,,,0.00,meteohub,2013-08-25 01:57:00,
2013-08-24 22:02:00,58.8,53.1,30.19,North,6,0.0,0.0,81,0.00,,,0.00,meteohub,2013-08-25 02:02:00,
2013-08-24 22:07:00,58.8,53.1,30.19,North,6,0.0,2.0,81,0.00,,,0.00,meteohub,2013-08-25 02:07:00,
2013-08-24 22:12:00,58.6,53.2,30.19,North,6,0.0,2.0,82,0.00,,,0.00,meteohub,2013-08-25 02:12:00,
2013-08-24 22:17:00,58.5,53.1,30.19,North,6,0.0,0.0,82,0.00,,,0.00,meteohub,2013-08-25 02:17:00,
2013-08-24 22:22:00,58.1,52.9,30.19,North,6,0.0,0.0,83,0.00,,,0.00,meteohub,2013-08-25 02:22:00,
2013-08-24 22:27:00,57.7,52.7,30.19,North,6,0.0,0.0,83,0.00,,,0.00,meteohub,2013-08-25 02:27:00,
2013-08-24 22:32:00,57.7,52.7,30.19,North,6,0.0,0.0,83,0.00,,,0.00,meteohub,2013-08-25 02:32:00,
2013-08-24 22:37:00,57.6,52.7,30.19,North,6,0.0,0.0,84,0.00,,,0.00,meteohub,2013-08-25 02:37:00,
2013-08-24 22:42:00,57.2,52.3,30.19,North,6,0.0,0.0,84,0.00,,,0.00,meteohub,2013-08-25 02:42:00,
2013-08-24 22:47:00,57.0,52.5,30.19,North,6,0.0,0.0,85,0.00,,,0.00,meteohub,2013-08-25 02:47:00,
2013-08-24 22:52:00,56.8,52.7,30.19,North,6,0.0,0.0,86,0.00,,,0.00,meteohub,2013-08-25 02:52:00,
2013-08-24 22:57:00,56.7,52.5,30.19,North,6,0.0,0.0,86,0.00,,,0.00,meteohub,2013-08-25 02:57:00,
2013-08-24 23:02:00,56.7,52.9,30.19,North,6,0.0,0.0,87,0.00,,,0.00,meteohub,2013-08-25 03:02:00,
2013-08-24 23:07:00,56.5,52.7,30.19,North,6,0.0,0.0,87,0.00,,,0.00,meteohub,2013-08-25 03:07:00,
2013-08-24 23:12:00,56.3,52.5,30.19,North,6,0.0,0.0,87,0.00,,,0.00,meteohub,2013-08-25 03:12:00,
2013-08-24 23:17:00,56.1,52.7,30.19,North,6,0.0,0.0,88,0.00,,,0.00,meteohub,2013-08-25 03:17:00,
2013-08-24 23:22:00,56.1,52.7,30.19,North,6,0.0,0.0,88,0.00,,,0.00,meteohub,2013-08-25 03:22:00,
2013-08-24 23:27:00,55.9,52.7,30.19,North,6,0.0,0.0,89,0.00,,,0.00,meteohub,2013-08-25 03:27:00,
2013-08-24 23:32:00,55.9,52.7,30.19,North,6,0.0,0.0,89,0.00,,,0.00,meteohub,2013-08-25 03:32:00,
2013-08-24 23:37:00,55.9,52.7,30.19,North,6,0.0,0.0,89,0.00,,,0.00,meteohub,2013-08-25 03:37:00,
2013-08-24 23:42:00,55.8,52.9,30.19,North,6,0.0,0.0,90,0.00,,,0.00,meteohub,2013-08-25 03:42:00,
2013-08-24 23:47:00,55.9,53.1,30.19,North,6,0.0,0.0,90,0.00,,,0.00,meteohub,2013-08-25 03:47:00,
2013-08-24 23:52:00,55.9,53.4,30.19,North,6,0.0,0.0,91,0.00,,,0.00,meteohub,2013-08-25 03:52:00,
2013-08-24 23:57:00,55.8,53.2,30.19,North,6,0.0,0.0,91,0.00,,,0.00,meteohub,2013-08-25 03:57:00,